Regional Weather Roundup
Issued by NWS Albany, NY

Home | Current Version | Previous Version | Text Only | Print | Product List | Glossary On
Versions: 1 2 3 4 5 6 7 8 9 10 11 12 13 14 15 16 17 18 19 20 21 22 23 24 25 26 27 28 29 30 31 32 33 34 35 36 37 38 39 40 41 42 43 44 45 46 47 48 49 50
000
ASUS41 KALY 290410
RWRALY

NEW YORK STATE HOURLY WEATHER ROUNDUP
NATIONAL WEATHER SERVICE ALBANY NY
1200 AM EDT SUN MAR 29 2015

NOTE: "FAIR" INDICATES FEW OR NO CLOUDS BELOW 12,000 FEET WITH NO
SIGNIFICANT WEATHER AND/OR NO OBSTRUCTIONS TO VISIBILITY.

NYZ032-033-038>043-046>054-057>066-NYZ062>081-290500-
EAST


CITY           SKY/WX    TMP DP  RH WIND       PRES   REMARKS
ALBANY         MOCLDY    25   8  48 NW12G17   30.15R WCI  14
GLENS FALLS    CLEAR     23   3  42 NW7       30.14R WCI  15
POUGHKEEPSIE   CLOUDY    28  13  53 NW6       30.12R WCI  22
NEWBURGH       CLOUDY    25  16  68 N7        30.12R WCI  17
MONTGOMERY     CLOUDY    26   8  46 NW12      30.11R WCI  16
WHITE PLAINS   LGT SNOW  25  20  81 NW12      30.08R FOG     WCI  14
ISLIP          LGT SNOW  28  23  81 NW18      30.06R WCI  15
NEW YORK CITY  FLURRIES  29  19  66 NW14G22   30.12R WCI  18
CENTRAL PARK   CLOUDY    27  17  66 NW10G20   30.14R HAZE    WCI  17
$$

NYZ005>009-017-018-044>046-055-056-290500-
CENTRAL


CITY           SKY/WX    TMP DP  RH WIND       PRES   REMARKS
FULTON         CLEAR     15   9  76 SE3       30.19S
SYRACUSE       CLEAR     19  11  70 CALM      30.19S
ROME           CLEAR     16   4  59 CALM      30.20S
ELMIRA         CLEAR     19   7  59 SW7       30.19R WCI  10
BINGHAMTON     CLEAR     15   4  61 W5        30.11R WCI   8
MONTICELLO     CLEAR     18   1  49 NW14G21   30.10R WCI   4
$$

NYZ026>034-041>043-290500-
NORTH


CITY           SKY/WX    TMP DP  RH WIND       PRES   REMARKS
WATERTOWN      CLEAR     19   7  59 S3        30.18S
FORT DRUM      NOT AVBL
MASSENA        CLEAR     18   3  52 SW5       30.17R WCI  11
SARANAC LAKE   CLEAR     -2  -5  87 CALM      30.05R
PLATTSBURGH    CLEAR     21   3  45 VRB3      30.11S
$$

NYZ001>004-010>016-019>021-290500-
WEST


CITY           SKY/WX    TMP DP  RH WIND       PRES   REMARKS
NIAGARA FALLS  CLEAR     21   7  54 CALM      30.25R
BUFFALO        CLEAR     19  13  77 SW3       30.24R
DUNKIRK        CLEAR     21  13  71 W6        30.27R WCI  13
JAMESTOWN      CLEAR     18   9  68 NW6       30.18S WCI   9
WELLSVILLE     CLEAR     13   5  70 W12       30.14R WCI  -1
ROCHESTER      CLEAR     22  10  60 W6        30.22R WCI  14
PENN YAN       CLEAR     22   8  55 W8        30.18R WCI  12
$$

             KEY
       WCI = WIND CHILL INDEX
       VSB = VISIBILITY
       HX  = HEAT INDEX
$$



USA.gov is the U.S. government's official web portal to all federal, state and local government web resources and services.